Year,Month,Day,Hour,Minute,Value (Times are PST for temperature in C)
2006,07,24,00,00,22.80
2006,07,24,00,01,22.70
2006,07,24,00,02,22.70
2006,07,24,00,03,22.60
2006,07,24,00,04,22.40
2006,07,24,00,05,22.30
2006,07,24,00,06,22.10
2006,07,24,00,07,21.90
2006,07,24,00,08,21.70
2006,07,24,00,09,21.50
2006,07,24,00,10,21.30
2006,07,24,00,11,21.20
2006,07,24,00,12,21.10
2006,07,24,00,13,21.00
2006,07,24,00,14,21.00
2006,07,24,00,15,20.90
2006,07,24,00,16,20.80
2006,07,24,00,17,20.70
2006,07,24,00,18,20.60
2006,07,24,00,19,20.60
2006,07,24,00,20,20.50
2006,07,24,00,21,20.40
2006,07,24,00,22,20.30
2006,07,24,00,23,20.10
2006,07,24,00,24,20.00
2006,07,24,00,25,19.90
2006,07,24,00,26,19.70
2006,07,24,00,27,19.50
2006,07,24,00,28,19.40
2006,07,24,00,29,19.20
2006,07,24,00,30,19.00
2006,07,24,00,31,18.80
2006,07,24,00,32,18.60
2006,07,24,00,33,18.50
2006,07,24,00,34,18.30
2006,07,24,00,35,18.20
2006,07,24,00,36,18.00
2006,07,24,00,37,17.90
2006,07,24,00,38,17.80
2006,07,24,00,39,17.80
2006,07,24,00,40,17.70
2006,07,24,00,41,17.70
2006,07,24,00,42,17.60
2006,07,24,00,43,17.50
2006,07,24,00,44,17.50
2006,07,24,00,45,17.50
2006,07,24,00,46,17.50
2006,07,24,00,47,17.50
2006,07,24,00,48,17.50
2006,07,24,00,49,17.50
2006,07,24,00,50,17.50
2006,07,24,00,51,17.60
2006,07,24,00,52,17.70
2006,07,24,00,53,17.80
2006,07,24,00,54,17.80
2006,07,24,00,55,17.90
2006,07,24,00,56,18.00
2006,07,24,00,57,18.10
2006,07,24,00,58,18.20
2006,07,24,00,59,18.30
2006,07,24,01,00,18.30
2006,07,24,01,01,18.40
2006,07,24,01,02,18.40
2006,07,24,01,03,18.50
2006,07,24,01,04,18.50
2006,07,24,01,05,18.60
2006,07,24,01,06,18.70
2006,07,24,01,07,18.70
2006,07,24,01,08,18.80
2006,07,24,01,09,18.90
2006,07,24,01,10,18.90
2006,07,24,01,11,18.90
2006,07,24,01,12,18.90
2006,07,24,01,13,18.90
2006,07,24,01,14,18.90
2006,07,24,01,15,18.90
2006,07,24,01,16,18.90
2006,07,24,01,17,18.90
2006,07,24,01,18,19.10
2006,07,24,01,19,19.10
2006,07,24,01,20,19.10
2006,07,24,01,21,19.10
2006,07,24,01,22,19.10
2006,07,24,01,23,19.10
2006,07,24,01,24,19.10
2006,07,24,01,25,19.10
2006,07,24,01,26,19.10
2006,07,24,01,27,19.10
2006,07,24,01,28,19.10
2006,07,24,01,29,19.10
2006,07,24,01,30,19.20
2006,07,24,01,31,19.30
2006,07,24,01,32,19.30
2006,07,24,01,33,19.40
2006,07,24,01,34,19.40
2006,07,24,01,35,19.50
2006,07,24,01,36,19.50
2006,07,24,01,37,19.50
2006,07,24,01,38,19.50
2006,07,24,01,39,19.60
2006,07,24,01,40,19.60
2006,07,24,01,41,19.60
2006,07,24,01,42,19.60
2006,07,24,01,43,19.60
2006,07,24,01,44,19.60
2006,07,24,01,45,19.60
2006,07,24,01,46,19.60
2006,07,24,01,47,19.60
2006,07,24,01,48,19.60
2006,07,24,01,49,19.60
2006,07,24,01,50,19.60
2006,07,24,01,51,19.60
2006,07,24,01,52,19.60
2006,07,24,01,53,19.60
2006,07,24,01,54,19.70
2006,07,24,01,55,19.70
2006,07,24,01,56,19.70
2006,07,24,01,57,19.80
2006,07,24,01,58,19.80
2006,07,24,01,59,19.80
2006,07,24,02,00,19.80
2006,07,24,02,01,19.80
2006,07,24,02,02,19.80
2006,07,24,02,03,19.80
2006,07,24,02,04,19.80
2006,07,24,02,05,19.70
2006,07,24,02,06,19.70
2006,07,24,02,07,19.70
2006,07,24,02,08,19.70
2006,07,24,02,09,19.70
2006,07,24,02,10,19.60
2006,07,24,02,11,19.60
2006,07,24,02,12,19.60
2006,07,24,02,13,19.60
2006,07,24,02,14,19.60
2006,07,24,02,15,19.60
2006,07,24,02,16,19.70
2006,07,24,02,17,19.70
2006,07,24,02,18,19.70
2006,07,24,02,19,19.70
2006,07,24,02,20,19.70
2006,07,24,02,21,19.70
2006,07,24,02,22,19.60
2006,07,24,02,23,19.60
2006,07,24,02,24,19.60
2006,07,24,02,25,19.60
2006,07,24,02,26,19.50
2006,07,24,02,27,19.50
2006,07,24,02,28,19.50
2006,07,24,02,29,19.50
2006,07,24,02,30,19.40
2006,07,24,02,31,19.40
2006,07,24,02,32,19.40
2006,07,24,02,33,19.40
2006,07,24,02,34,19.40
2006,07,24,02,35,19.30
2006,07,24,02,36,19.30
2006,07,24,02,37,19.30
2006,07,24,02,38,19.40
2006,07,24,02,39,19.40
2006,07,24,02,40,19.40
2006,07,24,02,41,19.30
2006,07,24,02,42,19.30
2006,07,24,02,43,19.30
2006,07,24,02,44,19.30
2006,07,24,02,45,19.30
2006,07,24,02,46,19.40
2006,07,24,02,47,19.40
2006,07,24,02,48,19.40
2006,07,24,02,49,19.40
2006,07,24,02,50,19.40
2006,07,24,02,51,19.40
2006,07,24,02,52,19.40
2006,07,24,02,53,19.30
2006,07,24,02,54,19.30
2006,07,24,02,55,19.30
2006,07,24,02,56,19.30
2006,07,24,02,57,19.30
2006,07,24,02,58,19.30
2006,07,24,02,59,19.30
2006,07,24,03,00,19.30
2006,07,24,03,01,19.30
2006,07,24,03,02,19.30
2006,07,24,03,03,19.30
2006,07,24,03,04,19.30
2006,07,24,03,05,19.30
2006,07,24,03,06,19.30
2006,07,24,03,07,19.30
2006,07,24,03,08,19.30
2006,07,24,03,09,19.30
2006,07,24,03,10,19.30
2006,07,24,03,11,19.30
2006,07,24,03,12,19.30
2006,07,24,03,13,19.30
2006,07,24,03,14,19.30
2006,07,24,03,15,19.30
2006,07,24,03,16,19.30
2006,07,24,03,17,19.30
2006,07,24,03,18,19.30
2006,07,24,03,19,19.30
2006,07,24,03,20,19.30
2006,07,24,03,21,19.30
2006,07,24,03,22,19.30
2006,07,24,03,23,19.20
2006,07,24,03,24,19.20
2006,07,24,03,25,19.20
2006,07,24,03,26,19.20
2006,07,24,03,27,19.20
2006,07,24,03,28,19.20
2006,07,24,03,29,19.10
2006,07,24,03,30,19.10
2006,07,24,03,31,19.10
2006,07,24,03,32,19.10
2006,07,24,03,33,19.10
2006,07,24,03,34,19.10
2006,07,24,03,35,19.10
2006,07,24,03,36,19.10
2006,07,24,03,37,19.10
2006,07,24,03,38,19.10
2006,07,24,03,39,19.10
2006,07,24,03,40,19.10
2006,07,24,03,41,19.10
2006,07,24,03,42,19.10
2006,07,24,03,43,19.10
2006,07,24,03,44,19.20
2006,07,24,03,45,19.20
2006,07,24,03,46,19.20
2006,07,24,03,47,19.20
2006,07,24,03,48,19.20
2006,07,24,03,49,19.20
2006,07,24,03,50,19.20
2006,07,24,03,51,19.20
2006,07,24,03,52,19.20
2006,07,24,03,53,19.20
2006,07,24,03,54,19.20
2006,07,24,03,55,19.20
2006,07,24,03,56,19.20
2006,07,24,03,57,19.20
2006,07,24,03,58,19.20
2006,07,24,03,59,19.30
2006,07,24,04,00,19.30
2006,07,24,04,01,19.20
2006,07,24,04,02,19.20
2006,07,24,04,03,19.20
2006,07,24,04,04,19.20
2006,07,24,04,05,19.20
2006,07,24,04,06,19.20
2006,07,24,04,07,19.20
2006,07,24,04,08,19.10
2006,07,24,04,09,19.10
2006,07,24,04,10,18.90
2006,07,24,04,11,18.80
2006,07,24,04,12,18.60
2006,07,24,04,13,18.30
2006,07,24,04,14,18.10
2006,07,24,04,15,17.90
2006,07,24,04,16,17.70
2006,07,24,04,17,17.50
2006,07,24,04,18,17.30
2006,07,24,04,19,17.10
2006,07,24,04,20,16.90
2006,07,24,04,21,16.80
2006,07,24,04,22,16.70
2006,07,24,04,23,16.50
2006,07,24,04,24,16.40
2006,07,24,04,25,16.30
2006,07,24,04,26,16.20
2006,07,24,04,27,16.10
2006,07,24,04,28,16.10
2006,07,24,04,29,16.00
2006,07,24,04,30,15.90
2006,07,24,04,31,15.80
2006,07,24,04,32,15.80
2006,07,24,04,33,15.80
2006,07,24,04,34,15.70
2006,07,24,04,35,15.70
2006,07,24,04,36,15.60
2006,07,24,04,37,15.60
2006,07,24,04,38,15.50
2006,07,24,04,39,15.50
2006,07,24,04,40,15.50
2006,07,24,04,41,15.40
2006,07,24,04,42,15.30
2006,07,24,04,43,15.30
2006,07,24,04,44,15.30
2006,07,24,04,45,15.30
2006,07,24,04,46,15.30
2006,07,24,04,47,15.30
2006,07,24,04,48,15.30
2006,07,24,04,49,15.30
2006,07,24,04,50,15.20
2006,07,24,04,51,15.20
2006,07,24,04,52,15.30
2006,07,24,04,53,15.30
2006,07,24,04,54,15.30
2006,07,24,04,55,15.30
2006,07,24,04,56,15.30
2006,07,24,04,57,15.30
2006,07,24,04,58,15.30
2006,07,24,04,59,15.30
2006,07,24,05,00,15.40
2006,07,24,05,01,15.50
2006,07,24,05,02,15.50
2006,07,24,05,03,15.60
2006,07,24,05,04,15.60
2006,07,24,05,05,15.70
2006,07,24,05,06,15.70
2006,07,24,05,07,15.80
2006,07,24,05,08,15.80
2006,07,24,05,09,15.80
2006,07,24,05,10,15.80
2006,07,24,05,11,15.90
2006,07,24,05,12,15.90
2006,07,24,05,13,15.90
2006,07,24,05,14,15.90
2006,07,24,05,15,15.90
2006,07,24,05,16,15.90
2006,07,24,05,17,15.90
2006,07,24,05,18,15.90
2006,07,24,05,19,16.00
2006,07,24,05,20,16.10
2006,07,24,05,21,16.10
2006,07,24,05,22,16.00
2006,07,24,05,23,15.90
2006,07,24,05,24,15.90
2006,07,24,05,25,16.00
2006,07,24,05,26,16.10
2006,07,24,05,27,16.10
2006,07,24,05,28,16.10
2006,07,24,05,29,16.10
2006,07,24,05,30,16.10
2006,07,24,05,31,16.10
2006,07,24,05,32,16.10
2006,07,24,05,33,16.10
2006,07,24,05,34,16.10
2006,07,24,05,35,16.10
2006,07,24,05,36,16.10
2006,07,24,05,37,16.20
2006,07,24,05,38,16.20
2006,07,24,05,39,16.30
2006,07,24,05,40,16.30
2006,07,24,05,41,16.30
2006,07,24,05,42,16.40
2006,07,24,05,43,16.40
2006,07,24,05,44,16.40
2006,07,24,05,45,16.40
2006,07,24,05,46,16.40
2006,07,24,05,47,16.40
2006,07,24,05,48,16.50
2006,07,24,05,49,16.60
2006,07,24,05,50,16.60
2006,07,24,05,51,16.60
2006,07,24,05,52,16.60
2006,07,24,05,53,16.60
2006,07,24,05,54,16.60
2006,07,24,05,55,16.60
2006,07,24,05,56,16.60
2006,07,24,05,57,16.60
2006,07,24,05,58,16.60
2006,07,24,05,59,16.60
2006,07,24,06,00,16.70
2006,07,24,06,01,16.70
2006,07,24,06,02,16.70
2006,07,24,06,03,16.70
2006,07,24,06,04,16.70
2006,07,24,06,05,16.70
2006,07,24,06,06,16.70
2006,07,24,06,07,16.70
2006,07,24,06,08,16.70
2006,07,24,06,09,16.70
2006,07,24,06,10,16.70
2006,07,24,06,11,16.70
2006,07,24,06,12,16.80
2006,07,24,06,13,16.80
2006,07,24,06,14,16.80
2006,07,24,06,15,16.80
2006,07,24,06,16,16.80
2006,07,24,06,17,16.80
2006,07,24,06,18,16.80
2006,07,24,06,19,16.80
2006,07,24,06,20,16.90
2006,07,24,06,21,16.90
2006,07,24,06,22,16.90
2006,07,24,06,23,16.90
2006,07,24,06,24,16.90
2006,07,24,06,25,16.90
2006,07,24,06,26,16.90
2006,07,24,06,27,16.90
2006,07,24,06,28,17.00
2006,07,24,06,29,17.00
2006,07,24,06,30,17.00
2006,07,24,06,31,17.00
2006,07,24,06,32,17.00
2006,07,24,06,33,17.10
2006,07,24,06,34,17.10
2006,07,24,06,35,17.10
2006,07,24,06,36,17.10
2006,07,24,06,37,17.10
2006,07,24,06,38,17.20
2006,07,24,06,39,17.20
2006,07,24,06,40,17.20
2006,07,24,06,41,17.30
2006,07,24,06,42,17.30
2006,07,24,06,43,17.30
2006,07,24,06,44,17.30
2006,07,24,06,45,17.30
2006,07,24,06,46,17.30
2006,07,24,06,47,17.30
2006,07,24,06,48,17.30
2006,07,24,06,49,17.30
2006,07,24,06,50,17.30
2006,07,24,06,51,17.40
2006,07,24,06,52,17.40
2006,07,24,06,53,17.40
2006,07,24,06,54,17.50
2006,07,24,06,55,17.50
2006,07,24,06,56,17.60
2006,07,24,06,57,17.70
2006,07,24,06,58,17.70
2006,07,24,06,59,17.80
2006,07,24,07,00,17.80
2006,07,24,07,01,17.90
2006,07,24,07,02,17.90
2006,07,24,07,03,17.90
2006,07,24,07,04,18.00
2006,07,24,07,05,18.10
2006,07,24,07,06,18.10
2006,07,24,07,07,18.20
2006,07,24,07,08,18.30
2006,07,24,07,09,18.30
2006,07,24,07,10,18.30
2006,07,24,07,11,18.40
2006,07,24,07,12,18.40
2006,07,24,07,13,18.50
2006,07,24,07,14,18.60
2006,07,24,07,15,18.60
2006,07,24,07,16,18.70
2006,07,24,07,17,18.70
2006,07,24,07,18,18.80
2006,07,24,07,19,18.90
2006,07,24,07,20,18.90
2006,07,24,07,21,18.90
2006,07,24,07,22,19.00
2006,07,24,07,23,19.10
2006,07,24,07,24,19.10
2006,07,24,07,25,19.10
2006,07,24,07,26,19.10
2006,07,24,07,27,19.20
2006,07,24,07,28,19.20
2006,07,24,07,29,19.30
2006,07,24,07,30,19.30
2006,07,24,07,31,19.30
2006,07,24,07,32,19.30
2006,07,24,07,33,19.30
2006,07,24,07,34,19.40
2006,07,24,07,35,19.40
2006,07,24,07,36,19.40
2006,07,24,07,37,19.50
2006,07,24,07,38,19.60
2006,07,24,07,39,19.70
2006,07,24,07,40,19.80
2006,07,24,07,41,19.90
2006,07,24,07,42,20.10
2006,07,24,07,43,20.20
2006,07,24,07,44,20.40
2006,07,24,07,45,20.50
2006,07,24,07,46,20.50
2006,07,24,07,47,20.60
2006,07,24,07,48,20.70
2006,07,24,07,49,20.80
2006,07,24,07,50,20.80
2006,07,24,07,51,20.80
2006,07,24,07,52,20.70
2006,07,24,07,53,20.60
2006,07,24,07,54,20.50
2006,07,24,07,55,20.50
2006,07,24,07,56,20.40
2006,07,24,07,57,20.30
2006,07,24,07,58,20.20
2006,07,24,07,59,20.10
2006,07,24,08,00,19.90
2006,07,24,08,01,19.80
2006,07,24,08,02,19.70
2006,07,24,08,03,19.70
2006,07,24,08,04,19.60
2006,07,24,08,05,19.50
2006,07,24,08,06,19.40
2006,07,24,08,07,19.30
2006,07,24,08,08,19.20
2006,07,24,08,09,19.10
2006,07,24,08,10,19.10
2006,07,24,08,11,19.10
2006,07,24,08,12,19.10
2006,07,24,08,13,19.00
2006,07,24,08,14,19.10
2006,07,24,08,15,19.10
2006,07,24,08,16,19.10
2006,07,24,08,17,19.10
2006,07,24,08,18,19.10
2006,07,24,08,19,19.20
2006,07,24,08,20,19.20
2006,07,24,08,21,19.30
2006,07,24,08,22,19.30
2006,07,24,08,23,19.30
2006,07,24,08,24,19.30
2006,07,24,08,25,19.30
2006,07,24,08,26,19.30
2006,07,24,08,27,19.30
2006,07,24,08,28,19.40
2006,07,24,08,29,19.50
2006,07,24,08,30,19.60
2006,07,24,08,31,19.60
2006,07,24,08,32,19.70
2006,07,24,08,33,19.80
2006,07,24,08,34,19.80
2006,07,24,08,35,19.90
2006,07,24,08,36,20.00
2006,07,24,08,37,20.10
2006,07,24,08,38,20.30
2006,07,24,08,39,20.40
2006,07,24,08,40,20.50
2006,07,24,08,41,20.80
2006,07,24,08,42,21.00
2006,07,24,08,43,21.10
2006,07,24,08,44,21.20
2006,07,24,08,45,21.40
2006,07,24,08,46,21.50
2006,07,24,08,47,21.70
2006,07,24,08,48,21.80
2006,07,24,08,49,22.00
2006,07,24,08,50,22.00
2006,07,24,08,51,22.10
2006,07,24,08,52,22.20
2006,07,24,08,53,22.30
2006,07,24,08,54,22.30
2006,07,24,08,55,22.40
2006,07,24,08,56,22.40
2006,07,24,08,57,22.50
2006,07,24,08,58,22.60
2006,07,24,08,59,22.70
2006,07,24,09,00,22.80
2006,07,24,09,01,22.80
2006,07,24,09,02,23.00
2006,07,24,09,03,23.10
2006,07,24,09,04,23.20
2006,07,24,09,05,23.30
2006,07,24,09,06,23.40
2006,07,24,09,07,23.50
2006,07,24,09,08,23.60
2006,07,24,09,09,23.70
2006,07,24,09,10,23.80
2006,07,24,09,11,23.70
2006,07,24,09,12,23.80
2006,07,24,09,13,23.90
2006,07,24,09,14,23.90
2006,07,24,09,15,23.90
2006,07,24,09,16,24.00
2006,07,24,09,17,24.10
2006,07,24,09,18,24.20
2006,07,24,09,19,24.30
2006,07,24,09,20,24.40
2006,07,24,09,21,24.50
2006,07,24,09,22,24.70
2006,07,24,09,23,24.80
2006,07,24,09,24,24.80
2006,07,24,09,25,24.80
2006,07,24,09,26,24.80
2006,07,24,09,27,24.80
2006,07,24,09,28,24.80
2006,07,24,09,29,24.80
2006,07,24,09,30,24.80
2006,07,24,09,31,24.80
2006,07,24,09,32,24.80
2006,07,24,09,33,24.80
2006,07,24,09,34,24.70
2006,07,24,09,35,24.60
2006,07,24,09,36,24.50
2006,07,24,09,37,24.40
2006,07,24,09,38,24.40
2006,07,24,09,39,24.40
2006,07,24,09,40,24.40
2006,07,24,09,41,24.40
2006,07,24,09,42,24.40
2006,07,24,09,43,24.50
2006,07,24,09,44,24.60
2006,07,24,09,45,24.70
2006,07,24,09,46,24.90
2006,07,24,09,47,24.90
2006,07,24,09,48,25.00
2006,07,24,09,49,25.10
2006,07,24,09,50,25.10
2006,07,24,09,51,25.00
2006,07,24,09,52,25.00
2006,07,24,09,53,25.00
2006,07,24,09,54,25.00
2006,07,24,09,55,25.00
2006,07,24,09,56,25.00
2006,07,24,09,57,25.00
2006,07,24,09,58,25.00
2006,07,24,09,59,25.10
2006,07,24,10,00,25.20
2006,07,24,10,01,25.20
2006,07,24,10,02,25.20
2006,07,24,10,03,25.10
2006,07,24,10,04,25.20
2006,07,24,10,05,25.30
2006,07,24,10,06,25.30
2006,07,24,10,07,25.30
2006,07,24,10,08,25.30
2006,07,24,10,09,25.20
2006,07,24,10,10,25.20
2006,07,24,10,11,25.20
2006,07,24,10,12,25.20
2006,07,24,10,13,25.20
2006,07,24,10,14,25.10
2006,07,24,10,15,25.10
2006,07,24,10,16,25.00
2006,07,24,10,17,24.90
2006,07,24,10,18,24.90
2006,07,24,10,19,24.90
2006,07,24,10,20,24.90
2006,07,24,10,21,24.90
2006,07,24,10,22,24.70
2006,07,24,10,23,24.60
2006,07,24,10,24,24.40
2006,07,24,10,25,24.30
2006,07,24,10,26,24.10
2006,07,24,10,27,24.00
2006,07,24,10,28,24.00
2006,07,24,10,29,24.10
2006,07,24,10,30,24.10
2006,07,24,10,31,24.10
2006,07,24,10,32,24.10
2006,07,24,10,33,24.20
2006,07,24,10,34,24.20
2006,07,24,10,35,24.20
2006,07,24,10,36,24.10
2006,07,24,10,37,24.00
2006,07,24,10,38,23.90
2006,07,24,10,39,23.80
2006,07,24,10,40,23.80
2006,07,24,10,41,23.90
2006,07,24,10,42,24.00
2006,07,24,10,43,24.10
2006,07,24,10,44,24.10
2006,07,24,10,45,24.10
2006,07,24,10,46,24.10
2006,07,24,10,47,23.90
2006,07,24,10,48,23.70
2006,07,24,10,49,23.60
2006,07,24,10,50,23.50
2006,07,24,10,51,23.40
2006,07,24,10,52,23.30
2006,07,24,10,53,23.30
2006,07,24,10,54,23.30
2006,07,24,10,55,23.30
2006,07,24,10,56,23.40
2006,07,24,10,57,23.60
2006,07,24,10,58,23.70
2006,07,24,10,59,23.80
2006,07,24,11,00,23.90
2006,07,24,11,01,23.90
2006,07,24,11,02,24.00
2006,07,24,11,03,24.10
2006,07,24,11,04,24.10
2006,07,24,11,05,24.10
2006,07,24,11,06,24.20
2006,07,24,11,07,24.40
2006,07,24,11,08,24.40
2006,07,24,11,09,24.40
2006,07,24,11,10,24.40
2006,07,24,11,11,24.50
2006,07,24,11,12,24.40
2006,07,24,11,13,24.40
2006,07,24,11,14,24.50
2006,07,24,11,15,24.40
2006,07,24,11,16,24.40
2006,07,24,11,17,24.40
2006,07,24,11,18,24.30
2006,07,24,11,19,24.30
2006,07,24,11,20,24.40
2006,07,24,11,21,24.40
2006,07,24,11,22,24.50
2006,07,24,11,23,24.50
2006,07,24,11,24,24.50
2006,07,24,11,25,24.50
2006,07,24,11,26,24.60
2006,07,24,11,27,24.70
2006,07,24,11,28,24.80
2006,07,24,11,29,25.00
2006,07,24,11,30,25.10
2006,07,24,11,31,25.10
2006,07,24,11,32,25.20
2006,07,24,11,33,25.20
2006,07,24,11,34,25.20
2006,07,24,11,35,25.10
2006,07,24,11,36,25.00
2006,07,24,11,37,24.80
2006,07,24,11,38,24.60
2006,07,24,11,39,24.40
2006,07,24,11,40,24.10
2006,07,24,11,41,23.90
2006,07,24,11,42,23.80
2006,07,24,11,43,23.80
2006,07,24,11,44,23.80
2006,07,24,11,45,23.70
2006,07,24,11,46,23.60
2006,07,24,11,47,23.40
2006,07,24,11,48,23.20
2006,07,24,11,49,23.10
2006,07,24,11,50,23.10
2006,07,24,11,51,23.10
2006,07,24,11,52,23.00
2006,07,24,11,53,22.90
2006,07,24,11,54,22.90
2006,07,24,11,55,22.90
2006,07,24,11,56,22.90
2006,07,24,11,57,22.90
2006,07,24,11,58,23.00
2006,07,24,11,59,23.20
2006,07,24,12,00,23.30
2006,07,24,12,01,23.40
2006,07,24,12,02,23.60
2006,07,24,12,03,23.60
2006,07,24,12,04,23.70
2006,07,24,12,05,23.70
2006,07,24,12,06,23.70
2006,07,24,12,07,23.70
2006,07,24,12,08,23.70
2006,07,24,12,09,23.70
2006,07,24,12,10,23.70
2006,07,24,12,11,23.60
2006,07,24,12,12,23.60
2006,07,24,12,13,23.50
2006,07,24,12,14,23.40
2006,07,24,12,15,23.30
2006,07,24,12,16,23.30
2006,07,24,12,17,23.40
2006,07,24,12,18,23.30
2006,07,24,12,19,23.30
2006,07,24,12,20,23.30
2006,07,24,12,21,23.20
2006,07,24,12,22,23.20
2006,07,24,12,23,23.20
2006,07,24,12,24,23.30
2006,07,24,12,25,23.30
2006,07,24,12,26,23.40
2006,07,24,12,27,23.60
2006,07,24,12,28,23.70
2006,07,24,12,29,23.70
2006,07,24,12,30,23.80
2006,07,24,12,31,23.80
2006,07,24,12,32,23.80
2006,07,24,12,33,23.90
2006,07,24,12,34,23.90
2006,07,24,12,35,24.00
2006,07,24,12,36,24.10
2006,07,24,12,37,24.20
2006,07,24,12,38,24.20
2006,07,24,12,39,24.20
2006,07,24,12,40,24.30
2006,07,24,12,41,24.40
2006,07,24,12,42,24.40
2006,07,24,12,43,24.30
2006,07,24,12,44,24.20
2006,07,24,12,45,24.00
2006,07,24,12,46,23.80
2006,07,24,12,47,23.70
2006,07,24,12,48,23.70
2006,07,24,12,49,23.60
2006,07,24,12,50,23.60
2006,07,24,12,51,23.70
2006,07,24,12,52,23.70
2006,07,24,12,53,23.60
2006,07,24,12,54,23.60
2006,07,24,12,55,23.70
2006,07,24,12,56,23.90
2006,07,24,12,57,24.10
2006,07,24,12,58,24.20
2006,07,24,12,59,24.30
2006,07,24,13,00,24.40
2006,07,24,13,01,24.60
2006,07,24,13,02,24.80
2006,07,24,13,03,24.90
2006,07,24,13,04,24.80
2006,07,24,13,05,24.70
2006,07,24,13,06,24.80
2006,07,24,13,07,24.80
2006,07,24,13,08,24.70
2006,07,24,13,09,24.80
2006,07,24,13,10,24.70
2006,07,24,13,11,24.70
2006,07,24,13,12,24.70
2006,07,24,13,13,24.50
2006,07,24,13,14,24.40
2006,07,24,13,15,24.30
2006,07,24,13,16,24.30
2006,07,24,13,17,24.40
2006,07,24,13,18,24.50
2006,07,24,13,19,24.60
2006,07,24,13,20,24.60
2006,07,24,13,21,24.50
2006,07,24,13,22,24.60
2006,07,24,13,23,24.70
2006,07,24,13,24,24.80
2006,07,24,13,25,24.90
2006,07,24,13,26,25.00
2006,07,24,13,27,25.10
2006,07,24,13,28,25.10
2006,07,24,13,29,24.90
2006,07,24,13,30,24.90
2006,07,24,13,31,24.90
2006,07,24,13,32,24.90
2006,07,24,13,33,24.80
2006,07,24,13,34,24.80
2006,07,24,13,35,24.80
2006,07,24,13,36,24.90
2006,07,24,13,37,24.90
2006,07,24,13,38,25.00
2006,07,24,13,39,25.10
2006,07,24,13,40,25.10
2006,07,24,13,41,25.30
2006,07,24,13,42,25.30
2006,07,24,13,43,25.40
2006,07,24,13,44,25.40
2006,07,24,13,45,25.50
2006,07,24,13,46,25.70
2006,07,24,13,47,25.80
2006,07,24,13,48,25.90
2006,07,24,13,49,26.00
2006,07,24,13,50,26.10
2006,07,24,13,51,26.30
2006,07,24,13,52,26.30
2006,07,24,13,53,26.50
2006,07,24,13,54,26.50
2006,07,24,13,55,26.60
2006,07,24,13,56,26.60
2006,07,24,13,57,26.60
2006,07,24,13,58,26.60
2006,07,24,13,59,26.60
2006,07,24,14,00,26.60
2006,07,24,14,01,26.60
2006,07,24,14,02,26.70
2006,07,24,14,03,26.80
2006,07,24,14,04,26.90
2006,07,24,14,05,27.10
2006,07,24,14,06,27.20
2006,07,24,14,07,27.30
2006,07,24,14,08,27.30
2006,07,24,14,09,27.30
2006,07,24,14,10,27.20
2006,07,24,14,11,27.10
2006,07,24,14,12,26.90
2006,07,24,14,13,26.80
2006,07,24,14,14,26.70
2006,07,24,14,15,26.70
2006,07,24,14,16,26.70
2006,07,24,14,17,26.60
2006,07,24,14,18,26.60
2006,07,24,14,19,26.60
2006,07,24,14,20,26.60
2006,07,24,14,21,26.60
2006,07,24,14,22,26.60
2006,07,24,14,23,26.60
2006,07,24,14,24,26.30
2006,07,24,14,25,26.00
2006,07,24,14,26,25.80
2006,07,24,14,27,25.70
2006,07,24,14,28,25.70
2006,07,24,14,29,25.60
2006,07,24,14,30,25.50
2006,07,24,14,31,25.40
2006,07,24,14,32,25.30
2006,07,24,14,33,25.20
2006,07,24,14,34,25.10
2006,07,24,14,35,25.00
2006,07,24,14,36,25.00
2006,07,24,14,37,25.10
2006,07,24,14,38,25.20
2006,07,24,14,39,25.40
2006,07,24,14,40,25.50
2006,07,24,14,41,25.40
2006,07,24,14,42,25.30
2006,07,24,14,43,25.30
2006,07,24,14,44,25.20
2006,07,24,14,45,25.20
2006,07,24,14,46,25.10
2006,07,24,14,47,25.10
2006,07,24,14,48,25.20
2006,07,24,14,49,25.20
2006,07,24,14,50,25.10
2006,07,24,14,51,25.20
2006,07,24,14,52,25.30
2006,07,24,14,53,25.50
2006,07,24,14,54,25.70
2006,07,24,14,55,25.80
2006,07,24,14,56,25.80
2006,07,24,14,57,25.90
2006,07,24,14,58,26.00
2006,07,24,14,59,26.00
2006,07,24,15,00,25.90
2006,07,24,15,01,25.90
2006,07,24,15,02,25.90
2006,07,24,15,03,26.00
2006,07,24,15,04,25.90
2006,07,24,15,05,26.00
2006,07,24,15,06,26.10
2006,07,24,15,07,26.20
2006,07,24,15,08,26.20
2006,07,24,15,09,26.40
2006,07,24,15,10,26.40
2006,07,24,15,11,26.60
2006,07,24,15,12,26.60
2006,07,24,15,13,26.60
2006,07,24,15,14,26.70
2006,07,24,15,15,26.90
2006,07,24,15,16,26.90
2006,07,24,15,17,27.10
2006,07,24,15,18,27.10
2006,07,24,15,19,27.20
2006,07,24,15,20,27.20
2006,07,24,15,21,27.30
2006,07,24,15,22,27.50
2006,07,24,15,23,27.70
2006,07,24,15,24,27.80
2006,07,24,15,25,27.90
2006,07,24,15,26,28.00
2006,07,24,15,27,27.80
2006,07,24,15,28,27.80
2006,07,24,15,29,27.70
2006,07,24,15,30,27.60
2006,07,24,15,31,27.40
2006,07,24,15,32,27.40
2006,07,24,15,33,27.40
2006,07,24,15,34,27.40
2006,07,24,15,35,27.40
2006,07,24,15,36,27.30
2006,07,24,15,37,27.40
2006,07,24,15,38,27.30
2006,07,24,15,39,27.30
2006,07,24,15,40,27.30
2006,07,24,15,41,27.40
2006,07,24,15,42,27.40
2006,07,24,15,43,27.50
2006,07,24,15,44,27.60
2006,07,24,15,45,27.50
2006,07,24,15,46,27.40
2006,07,24,15,47,27.50
2006,07,24,15,48,27.60
2006,07,24,15,49,27.70
2006,07,24,15,50,27.70
2006,07,24,15,51,27.80
2006,07,24,15,52,27.80
2006,07,24,15,53,27.90
2006,07,24,15,54,27.90
2006,07,24,15,55,27.70
2006,07,24,15,56,27.70
2006,07,24,15,57,27.70
2006,07,24,15,58,27.60
2006,07,24,15,59,27.60
2006,07,24,16,00,27.70
2006,07,24,16,01,27.70
2006,07,24,16,02,27.70
2006,07,24,16,03,27.60
2006,07,24,16,04,27.40
2006,07,24,16,05,27.30
2006,07,24,16,06,27.40
2006,07,24,16,07,27.50
2006,07,24,16,08,27.50
2006,07,24,16,09,27.40
2006,07,24,16,10,27.30
2006,07,24,16,11,27.30
2006,07,24,16,12,27.40
2006,07,24,16,13,27.50
2006,07,24,16,14,27.60
2006,07,24,16,15,27.70
2006,07,24,16,16,27.60
2006,07,24,16,17,27.60
2006,07,24,16,18,27.60
2006,07,24,16,19,27.60
2006,07,24,16,20,27.70
2006,07,24,16,21,27.60
2006,07,24,16,22,27.50
2006,07,24,16,23,27.40
2006,07,24,16,24,27.30
2006,07,24,16,25,27.30
2006,07,24,16,26,27.30
2006,07,24,16,27,27.30
2006,07,24,16,28,27.30
2006,07,24,16,29,27.30
2006,07,24,16,30,27.30
2006,07,24,16,31,27.20
2006,07,24,16,32,27.20
2006,07,24,16,33,27.20
2006,07,24,16,34,27.30
2006,07,24,16,35,27.30
2006,07,24,16,36,27.30
2006,07,24,16,37,27.40
2006,07,24,16,38,27.50
2006,07,24,16,39,27.50
2006,07,24,16,40,27.40
2006,07,24,16,41,27.30
2006,07,24,16,42,27.10
2006,07,24,16,43,26.90
2006,07,24,16,44,26.90
2006,07,24,16,45,26.90
2006,07,24,16,46,27.00
2006,07,24,16,47,27.10
2006,07,24,16,48,27.10
2006,07,24,16,49,27.10
2006,07,24,16,50,27.20
2006,07,24,16,51,27.20
2006,07,24,16,52,27.20
2006,07,24,16,53,27.20
2006,07,24,16,54,27.20
2006,07,24,16,55,27.30
2006,07,24,16,56,27.30
2006,07,24,16,57,27.30
2006,07,24,16,58,27.30
2006,07,24,16,59,27.30
2006,07,24,17,00,27.30
2006,07,24,17,01,27.30
2006,07,24,17,02,27.30
2006,07,24,17,03,27.30
2006,07,24,17,04,27.30
2006,07,24,17,05,27.20
2006,07,24,17,06,27.20
2006,07,24,17,07,27.20
2006,07,24,17,08,27.30
2006,07,24,17,09,27.30
2006,07,24,17,10,27.30
2006,07,24,17,11,27.30
2006,07,24,17,12,27.50
2006,07,24,17,13,27.60
2006,07,24,17,14,27.70
2006,07,24,17,15,27.70
2006,07,24,17,16,27.70
2006,07,24,17,17,27.80
2006,07,24,17,18,27.90
2006,07,24,17,19,27.90